Printer-friendly version

IAU Minor Planet Center

Minor Planet Center

MPEC 2000-W57: 2000 WL63

The following Minor Planet Electronic Circular may be linked-to from your own Web pages, but must not otherwise be redistributed electronically.


Read MPEC 2000-W56 Read MPEC 2000-W58


M.P.E.C. 2000-W57                                Issued 2000 Nov. 29, 19:21 UT

     The Minor Planet Electronic Circulars contain information on unusual
         minor planets and routine data on comets.  They are published
   on behalf of Commission 20 of the International Astronomical Union by the
          Minor Planet Center, Smithsonian Astrophysical Observatory,
                          Cambridge, MA 02138, U.S.A.

             Prepared using the Tamkin Foundation Computer Network

                              MPC@CFA.HARVARD.EDU
          URL http://cfa-www.harvard.edu/iau/mpc.html  ISSN 1523-6714

                                   2000 WL63

Observations:
     K00W63L* C2000 11 26.33530 05 04 06.42 +04 49 00.3          18.3        704
     K00W63L  C2000 11 26.35013 05 04 04.70 +04 49 30.2          18.3        704
     K00W63L  C2000 11 26.36658 05 04 02.76 +04 50 05.7          17.8        704
     K00W63L  C2000 11 26.38139 05 04 01.08 +04 50 36.7          17.9        704
     K00W63L  C2000 11 27.34342 05 02 15.91 +05 25 06.4          17.6        704
     K00W63L  C2000 11 27.34622 05 02 15.71 +05 25 13.1          18.2 R      853
     K00W63L  C2000 11 27.34706 05 02 15.61 +05 25 14.9          18.1 R      853
     K00W63L  C2000 11 27.34787 05 02 15.51 +05 25 16.6          18.1 R      853
     K00W63L  C2000 11 27.35827 05 02 14.10 +05 25 39.3          17.6        704
     K00W63L  C2000 11 27.36301 05 02 13.64 +05 25 49.3          18.3        704
     K00W63L  C2000 11 27.37327 05 02 12.26 +05 26 12.0          18.0        704
     K00W63L  C2000 11 27.38297 05 02 11.08 +05 26 34.0          17.9        704
     K00W63L  C2000 11 27.38780 05 02 10.50 +05 26 44.4          18.1        704
     K00W63L  C2000 11 27.40229 05 02 08.73 +05 27 16.6          18.0        704
     K00W63L  C2000 11 27.40441 05 02 08.44 +05 27 21.0          17.7        704
     K00W63L  C2000 11 27.41681 05 02 06.92 +05 27 47.9          17.7        704
     K00W63L  C2000 11 27.42212 05 02 06.27 +05 28 00.2          18.0        704
     K00W63L  C2000 11 27.90188 05 01 12.91 +05 45 52.7          17.0 R      046
     K00W63L  C2000 11 27.90347 05 01 12.65 +05 45 56.9                      046
     K00W63L  C2000 11 27.90475 05 01 12.52 +05 45 59.1                      046
     K00W63L  C2000 11 27.90572 05 01 12.38 +05 46 01.9                      046
     K00W63L  C2000 11 27.94869 05 01 07.04 +05 47 39.6                      557
     K00W63L  C2000 11 27.95015 05 01 06.85 +05 47 42.5                      557
     K00W63L  C2000 11 27.95162 05 01 06.67 +05 47 46.0                      557
     K00W63L  C2000 11 27.95309 05 01 06.49 +05 47 49.8                      557
     K00W63L  C2000 11 27.95456 05 01 06.31 +05 47 52.8                      557
     K00W63L  C2000 11 27.97561 05 01 03.64 +05 48 41.7          17.8 R      118
     K00W63L  C2000 11 27.97867 05 01 03.23 +05 48 48.6                      118
     K00W63L  C2000 11 27.98245 05 01 02.76 +05 48 57.2                      118
     K00W63L  C2000 11 28.12258 05 00 47.73 +05 54 27.2                      837
     K00W63L  C2000 11 28.13442 05 00 46.19 +05 54 55.1          18.3 R      837
     K00W63L  C2000 11 28.14578 05 00 44.72 +05 55 21.5                      837
     K00W63L  C2000 11 29.32478 04 58 19.87 +06 42 12.3                      711
     K00W63L  C2000 11 29.32950 04 58 19.22 +06 42 24.2                      711
     K00W63L  C2000 11 29.33414 04 58 18.58 +06 42 35.1                      711

Observer details:
046 Klet.  Observers M. Tichy, M. Kocer.  0.57-m f/5.2 reflector + CCD.
118 Modra.  Observers S. Gajdos, J. Toth.  0.6-m f/5.5 reflector + CCD.
557 Ondrejov.  Observer P. Kusnirak.  0.65-m f/3.6 reflector + CCD.
704 Lincoln Laboratory ETS, New Mexico.  Observers M. Blythe, F. Shelly,
    M. Bezpalko, M. Elowitz, R. Huber, L. Manguso.  Measurers J. Stuart,
    R. Sayer, J. B. Evans, H. Viggh.  1.0-m f/2.15 reflector + CCD.
711 McDonald Observatory.  Observer J. G. Ries.  0.76-m reflector + CCD.
837 Jupiter.  Observer L. Sikes.  Measurer B. Segal.  0.36-m f/11
    Schmidt-Cassegrain + CCD.
853 Biosphere 2 Observatory.  Observer G. J. Garradd.  0.6-m f/8.1 reflector
    + CCD.

Orbital elements:
2000 WL63
Epoch 2000 Nov. 12.0 TT = JDT 2451860.5                 Spahr
M 299.52390              (2000.0)            P               Q
n   0.57653216     Peri.   71.57876     -0.82872628     -0.46739852
a   1.4297289      Node    79.53875     +0.31708256     -0.84534993
e   0.2967466      Incl.   18.24133     +0.46116311     -0.25869311
P   1.71           H   19.7           G   0.15
From 35 observations 2000 Nov. 26-29.

Ephemeris:
2000 WL63                a,e,i = 1.43, 0.30, 18                  q = 1.0055
Date    TT    R. A. (2000) Decl.     Delta      r     Elong.  Phase     V
2000 11 22    05 10.83   +02 36.0    0.328    1.290   153.8    19.7    18.8
2000 12 02    04 52.33   +08 40.0    0.266    1.245   166.0    11.1    18.0
2000 12 12    04 22.42   +18 25.7    0.223    1.202   166.3    11.2    17.5
2000 12 22    03 40.80   +31 10.5    0.202    1.160   147.9    26.8    17.8
2001 01 01    02 50.97   +43 49.3    0.205    1.121   127.9    43.8    18.2
2001 01 11    01 59.16   +53 49.0    0.223    1.086   111.7    57.3    18.7
2001 01 21    01 09.02   +61 01.9    0.248    1.056   100.0    66.7    19.1
2001 01 31    00 20.05   +66 20.6    0.273    1.032    92.0    72.6    19.5
2001 02 10    23 27.5    +70 22.3    0.295    1.015    87.0    76.1    19.7
2001 02 20    22 26.3    +73 14.2    0.312    1.007    84.2    77.8    19.9
2001 03 02    21 14.3    +74 51.7    0.322    1.007    83.5    78.0    20.0
2001 03 12    19 55.0    +75 02.7    0.325    1.015    84.5    76.9    20.0
2001 03 22    18 37.6    +73 41.2    0.322    1.032    87.2    74.7    19.9
2001 04 01    17 28.1    +70 41.4    0.313    1.056    91.7    71.0    19.8
2001 04 11    16 29.63   +65 42.4    0.301    1.086    98.2    65.9    19.6
2001 04 21    15 42.87   +58 17.1    0.289    1.122   106.6    59.2    19.4
2001 05 01    15 07.80   +48 05.2    0.282    1.161   116.4    51.0    19.2
2001 05 11    14 43.85   +35 36.8    0.288    1.203   126.1    42.7    19.1
2001 05 21    14 29.30   +22 26.6    0.313    1.246   132.9    36.5    19.1
2001 05 31    14 22.49   +10 22.5    0.358    1.291   134.8    33.9    19.4
2001 06 10    14 21.86   +00 24.3    0.421    1.336   132.3    34.2    19.9
2001 06 20    14 26.00   -07 25.8    0.501    1.380   127.6    35.7    20.4
2001 06 30    14 34.01   -13 31.5    0.593    1.423   122.1    37.2    20.8
2001 07 10    14 45.09   -18 18.8    0.694    1.465   116.6    38.3    21.3
2001 07 20    14 58.68   -22 08.1    0.804    1.506   111.2    39.0    21.7
2001 07 30    15 14.41   -25 14.4    0.919    1.545   105.9    39.2    22.0

Timothy B. Spahr             (C) Copyright 2000 MPC           M.P.E.C. 2000-W57

Read MPEC 2000-W56 Read MPEC 2000-W58


Our Web policy. Index to the CBAT/MPC/ICQ pages.


Valid HTML 4.01!